Location: Squamish
(49.7000°N, 123.1500°W)
Time: 19:29:41
(UTC-07:00)

Envisat - Visible Passes

Search period start: 15 October 2019 00:00
Search period end: 25 October 2019 00:00
Orbit: 764 x 766 km, 98.1° (Epoch: 15 October)

Date Brightness Start Highest point End Pass type
(mag) Time Alt. Az. Time Alt. Az. Time Alt. Az.
15 Oct 5.4 20:19:45 10° SW 20:23:50 24° W 20:27:56 10° NW visible
16 Oct 6.4 06:45:34 10° ENE 06:48:01 13° E 06:50:29 10° ESE visible
16 Oct 4.1 19:41:53 10° S 19:46:46 47° W 19:51:42 10° NNW visible
17 Oct 3.0 19:04:51 10° SSE 19:09:56 87° ENE 19:15:03 10° NNW visible
17 Oct 6.0 20:46:52 10° WSW 20:49:39 15° W 20:52:28 10° NW visible
18 Oct 5.0 20:08:04 10° SSW 20:12:27 29° W 20:16:53 10° NNW visible
19 Oct 6.7 06:35:31 10° ENE 06:36:35 11° E 06:37:39 10° E visible
19 Oct 3.7 19:30:28 10° S 19:35:28 58° W 19:40:31 10° NNW visible
20 Oct 3.0 18:53:38 10° SSE 18:58:40 71° ENE 19:03:46 10° N visible
20 Oct 5.8 20:34:48 10° SW 20:38:14 18° W 20:41:42 10° NW visible
21 Oct 6.1 06:59:01 10° NE 07:02:29 18° E 07:05:54 10° SE visible
21 Oct 4.6 19:56:28 10° SSW 20:01:06 36° W 20:05:47 10° NNW visible
22 Oct 3.3 19:19:07 10° S 19:24:11 72° WSW 19:29:17 10° NNW visible
22 Oct 6.3 21:03:02 10° W 21:04:08 11° W 21:05:14 10° WNW visible
23 Oct 3.1 18:42:28 10° SSE 18:47:26 58° ENE 18:52:26 10° N visible
23 Oct 5.5 20:22:56 10° SW 20:26:51 22° W 20:30:47 10° NW visible
24 Oct 6.2 06:48:16 10° NE 06:51:04 15° E 06:53:50 10° ESE visible
24 Oct 4.2 19:44:57 10° S 19:49:46 44° W 19:54:39 10° NNW visible
